IRIDIUM 33 DEB

Satellite information

Favourite Embed

Satellite Type and Status

DEBRISIN ORBIT

Key statistics

Satellite IRIDIUM 33 DEB at a glance.

Uptime

10221

Days in orbit

Revolutions

≈ 14.6

Per day

Orbit

LEO

Low Earth Orbit

Inclination

86.3

Latest

Satellite identification and parameters

Extended collection of information and parameters for IRIDIUM 33 DEB.

Object identification

Identified? True

Debris? True

Object name: IRIDIUM 33 DEB

International designator: 1997-051KD

Object number (NORAD): 34652

Object ID (CCSDS): 34652

Country: UNITED STATES OF AMERICA (US)

Current information (Y/N): Y

RCS size: SMALL

Orbital parameters

Period: 98.577 minutes

Inclination: 86.3338 deg

SMA: 7068.753 km

Apoapsis: 709.666 km

Periapsis: 671.57 km

RAAN: 22.9269 deg

Eccentricy: 0.00269468

Argument of periapsis: 263.0026 deg

Mean anomaly: 217.672 deg

Mean motion: 14.60792608 rev/day

Mean motion (dot): 0.00006183 rev/day2

B* drag term: 0.0012558901 1/REarth

Two-line elements (TLE)

Creation date: Sept. 7, 2025, 9:49 a.m.

Reference frame: TEME

Reference center: EARTH

Epoch: Sept. 7, 2025, 3:37 a.m. UTC

TLE line 0: 0 IRIDIUM 33 DEB

TLE line 1: 1 34652U 97051KD 25250.15113490 .00006183 00000-0 12559-2 0 9992

TLE line 2: 2 34652 86.3338 22.9269 0026947 263.0026 217.6720 14.60792608870733

Live tracking on map

Real-time ground track for satellite IRIDIUM 33 DEB.

In-orbit conjunctions

A list of the most updated potential collisions computed for object IRIDIUM 33 DEB.

Target Orbit TCA Probability of collision Miss distance Type
CZ-6A DEB LEO 2024-12-04 12:59:51 0.0002242008 740.0 (m) DEBRIS
CZ-6A DEB LEO 2024-11-11 11:01:06 0.0002285274 296.0 (m) DEBRIS
CZ-6A DEB LEO 2024-11-02 16:51:14 0.0001187448 411.0 (m) DEBRIS
IRIDIUM 73 LEO 2024-11-02 11:16:33 0.0001437244 250.0 (m) PAYLOAD
PSLV R/B SSO 2024-10-27 09:15:25 0.0001541591 479.0 (m) ROCKET BODY

Associated space launch

Iridium provides global mobile telecommunications services using a constellation of 66 low earth orbit satellites in a 86.4° inclined orbit. Although 77 satellites were originally envisioned for the system and spawned the name based on the 77th element in the periodic table, the system has been scaled back. Motorola's Satellite Communications Group designed and manufactured the Iridium satellites with Lockheed Martin providing the LM-700A spacecraft buses.

IRIDIUM 33 DEB was lifted into orbit during the mission ‘Proton-K/17S40 | Iridium 27 to 33’, on board a Proton-K/17S40 space rocket.

The launch took place on Sept. 14, 1997, 1:36 a.m. from 81/23 (81L).

For more information about the launch, click the button.

Launch to space Proton-K/17S40 | Iridium 27 to 33
Proton-K/17S40 | Iridium 27 to 33

Agency: N/A

Status: Launch Successful

Launch date: Sept. 14, 1997, 1:36 a.m. UTC

Rocket: Proton-K/17S40

Launch pad: 81/23 (81L)

Location: Baikonur Cosmodrome, Republic of Kazakhstan

...

Latest news about this satellite

There are no fresh news available about this satellite. Check back as we update our databases every day.


Newsletter sign-up

Weekly statistics, charts and insights to help you stay on top of the space industry.